Murray, KY

9:23 AM CST on November 13, 2019 (GMT -0600)
Kyle-Oakley

Weather History for KCEY - September, 2019

Change the Weather History Date:

Saturday, September 21, 2019

  Actual Average (KPAH) Record (KPAH)
Temperature  
Mean Temperature 76 °F -  
Max Temperature 87 °F 78 °F 98 °F (1940)
Min Temperature 66 °F 56 °F 38 °F (1991)
Cooling Degree Days 12    
Growing Degree Days 26 (Base 50)    
Moisture  
Dew Point 60 °F    
Average Humidity 61    
Maximum Humidity 94    
Minimum Humidity 33    
Precipitation  
Precipitation 0.00 in - - ()
Sea Level Pressure  
Sea Level Pressure 30.18 in    
Wind  
Wind Speed 6 mph (SSE)    
Max Wind Speed 13 mph    
Max Gust Speed 21 mph    
Visibility 10 miles    
Events      
Averages and records for this station are not official NWS values.
T = Trace of Precipitation, MM = Missing Value Source: NWS Daily Summary

Daily Weather History Graph

Daily Weather History Graph

Search for Another Location

Airport or City:

Astronomy

Sep. 21, 2019 Rise Set
Actual Time 6:40 AM CDT 6:52 PM CDT
Civil Twilight 6:14 AM CDT 7:17 PM CDT
Nautical Twilight 5:44 AM CDT 7:48 PM CDT
Astronomical Twilight 5:13 AM CDT 8:18 PM CDT
Moon 11:40 PM CDT (9/21) 1:36 PM CDT (9/21)
Length of Visible Light 13h 03m
Length of Day
12h 11m
Waning Gibbous, 54% of the Moon is Illuminated
Sep 21
Waning Gibbous
Sep 21
Last Quarter
Sep 28
New
Oct 5
First Quarter
Oct 13
Full

Hourly Weather History & Observations

Time (CDT) Temp. Heat Index Dew Point Humidity Pressure Visibility Wind Dir Wind Speed Gust Speed Precip Events Conditions
12:15 AM 73.4 °F - 64.4 °F 73% 30.18 in 10.0 mi SSE 5.8 mph - N/A   Clear
12:35 AM 71.6 °F - 66.2 °F 83% 30.18 in 10.0 mi SSE 5.8 mph - N/A   Clear
12:55 AM 71.6 °F - 66.2 °F 83% 30.18 in 10.0 mi ESE 3.5 mph - N/A   Unknown
1:15 AM 71.6 °F - 66.2 °F 83% 30.18 in 10.0 mi SE 4.6 mph - N/A   Clear
1:35 AM 69.8 °F - 66.2 °F 88% 30.19 in 10.0 mi SSE 4.6 mph - N/A   Clear
1:55 AM 69.8 °F - 66.2 °F 88% 30.19 in 10.0 mi SE 4.6 mph - N/A   Clear
2:15 AM 68.0 °F - 66.2 °F 94% 30.19 in 10.0 mi SE 4.6 mph - N/A   Unknown
2:35 AM 68.0 °F - 66.2 °F 94% 30.19 in 10.0 mi SE 4.6 mph - N/A   Unknown
2:55 AM 68.0 °F - 66.2 °F 94% 30.19 in 10.0 mi SE 3.5 mph - N/A   Clear
3:15 AM 68.0 °F - 66.2 °F 94% 30.19 in 10.0 mi SSE 6.9 mph - N/A   Clear
3:35 AM 68.0 °F - 66.2 °F 94% 30.19 in 10.0 mi SSE 5.8 mph - N/A   Clear
3:55 AM 68.0 °F - 64.4 °F 88% 30.19 in 10.0 mi SSE 6.9 mph - N/A   Unknown
4:15 AM 68.0 °F - 64.4 °F 88% 30.19 in 10.0 mi SE 5.8 mph - N/A   Unknown
4:35 AM 68.0 °F - 64.4 °F 88% 30.19 in 10.0 mi SE 5.8 mph - N/A   Unknown
4:55 AM 66.2 °F - 64.4 °F 94% 30.20 in 10.0 mi SSE 6.9 mph - N/A   Unknown
5:15 AM 66.2 °F - 64.4 °F 94% 30.21 in 10.0 mi SSE 4.6 mph - N/A   Unknown
5:35 AM 66.2 °F - 64.4 °F 94% 30.21 in 10.0 mi SSE 5.8 mph - N/A   Clear
5:55 AM 66.2 °F - 64.4 °F 94% 30.22 in 10.0 mi SSE 5.8 mph - N/A   Clear
6:15 AM 66.2 °F - 64.4 °F 94% 30.22 in 10.0 mi SE 4.6 mph - N/A   Clear
6:35 AM 66.2 °F - 64.4 °F 94% 30.23 in 10.0 mi SE 6.9 mph - N/A   Unknown
6:55 AM 66.2 °F - 64.4 °F 94% 30.23 in 10.0 mi SSE 6.9 mph - N/A   Clear
7:15 AM 66.2 °F - 64.4 °F 94% 30.24 in 10.0 mi SSE 8.1 mph - N/A   Clear
7:35 AM 68.0 °F - 64.4 °F 88% 30.24 in 10.0 mi SSE 5.8 mph - N/A   Clear
7:55 AM 68.0 °F - 62.6 °F 83% 30.25 in 10.0 mi SSE 9.2 mph - N/A   Clear
8:15 AM 71.6 °F - 62.6 °F 73% 30.25 in 10.0 mi SSE 8.1 mph - N/A   Clear
8:35 AM 71.6 °F - 62.6 °F 73% 30.26 in 10.0 mi SSE 8.1 mph - N/A   Clear
8:55 AM 73.4 °F - 62.6 °F 69% 30.25 in 10.0 mi SSE 8.1 mph - N/A   Clear
9:15 AM 75.2 °F - 60.8 °F 61% 30.25 in 10.0 mi SSE 9.2 mph - N/A   Clear
9:35 AM 77.0 °F - 60.8 °F 57% 30.25 in 10.0 mi South 6.9 mph - N/A   Clear
9:55 AM 80.6 °F 81.1 °F 59.0 °F 48% 30.26 in 10.0 mi South 4.6 mph - N/A   Clear
10:15 AM 80.6 °F 80.5 °F 55.4 °F 42% 30.26 in 10.0 mi South 10.4 mph - N/A   Clear
10:35 AM 82.4 °F 81.7 °F 55.4 °F 39% 30.25 in 10.0 mi SSE 9.2 mph - N/A   Clear
10:55 AM 84.2 °F 83.0 °F 55.4 °F 37% 30.25 in 10.0 mi South 6.9 mph - N/A   Clear
11:15 AM 84.2 °F 83.0 °F 55.4 °F 37% 30.24 in 10.0 mi South 10.4 mph 17.3 mph N/A   Clear
11:35 AM 84.2 °F 83.0 °F 55.4 °F 37% 30.23 in 10.0 mi SSW 9.2 mph 17.3 mph N/A   Clear
11:55 AM 84.2 °F 83.0 °F 55.4 °F 37% 30.23 in 10.0 mi SSW 12.7 mph 16.1 mph N/A   Clear
12:15 PM 86.0 °F 84.5 °F 55.4 °F 35% 30.22 in 10.0 mi South 11.5 mph 17.3 mph N/A   Clear
12:35 PM 86.0 °F 84.5 °F 55.4 °F 35% 30.20 in 10.0 mi SSE 11.5 mph 17.3 mph N/A   Clear
12:55 PM 86.0 °F 84.5 °F 55.4 °F 35% 30.20 in 10.0 mi SSE 11.5 mph 18.4 mph N/A   Clear
1:15 PM 86.0 °F 84.5 °F 55.4 °F 35% 30.20 in 10.0 mi SSW 8.1 mph 17.3 mph N/A   Clear
1:35 PM 87.8 °F 86.5 °F 57.2 °F 35% 30.18 in 10.0 mi SW 9.2 mph 16.1 mph N/A   Clear
1:55 PM 87.8 °F 86.5 °F 57.2 °F 35% 30.18 in 10.0 mi SW 9.2 mph 20.7 mph N/A   Clear
2:15 PM 87.8 °F 86.5 °F 57.2 °F 35% 30.17 in 10.0 mi South 10.4 mph - N/A   Clear
2:35 PM 87.8 °F 86.5 °F 57.2 °F 35% 30.16 in 10.0 mi SSW 9.2 mph 16.1 mph N/A   Clear
2:55 PM 87.8 °F 86.1 °F 55.4 °F 33% 30.15 in 10.0 mi South 10.4 mph - N/A   Clear
3:15 PM 87.8 °F 86.5 °F 57.2 °F 35% 30.14 in 10.0 mi South 10.4 mph 18.4 mph N/A   Clear
3:35 PM 87.8 °F 86.1 °F 55.4 °F 33% 30.14 in 10.0 mi SSW 5.8 mph 16.1 mph N/A   Clear
3:55 PM 87.8 °F 86.5 °F 57.2 °F 35% 30.14 in 10.0 mi SSW 8.1 mph - N/A   Clear
4:15 PM 87.8 °F 86.1 °F 55.4 °F 33% 30.14 in 10.0 mi South 6.9 mph - N/A   Clear
4:35 PM 86.0 °F 84.9 °F 57.2 °F 37% 30.14 in 10.0 mi SSE 6.9 mph - N/A   Clear
4:55 PM 86.0 °F 84.5 °F 55.4 °F 35% 30.14 in 10.0 mi SSW 6.9 mph - N/A   Clear
5:15 PM 86.0 °F 84.9 °F 57.2 °F 37% 30.13 in 10.0 mi South 5.8 mph - N/A   Clear
5:35 PM 84.2 °F 83.5 °F 57.2 °F 40% 30.13 in 10.0 mi South 4.6 mph - N/A   Clear
5:55 PM 84.2 °F 83.5 °F 57.2 °F 40% 30.13 in 10.0 mi South 5.8 mph - N/A   Clear
6:15 PM 82.4 °F 82.0 °F 57.2 °F 42% 30.13 in 10.0 mi South 4.6 mph - N/A   Clear
6:35 PM 82.4 °F 82.0 °F 57.2 °F 42% 30.13 in 10.0 mi South 4.6 mph - N/A   Clear
6:55 PM 78.8 °F - 57.2 °F 47% 30.13 in 10.0 mi South 4.6 mph - N/A   Clear
7:15 PM 77.0 °F - 57.2 °F 50% 30.13 in 10.0 mi South 4.6 mph - N/A   Clear
7:35 PM 73.4 °F - 59.0 °F 61% 30.13 in 10.0 mi South 4.6 mph - N/A   Clear
7:55 PM 75.2 °F - 59.0 °F 57% 30.13 in 10.0 mi SSE 5.8 mph - N/A   Clear
8:15 PM 73.4 °F - 59.0 °F 61% 30.14 in 10.0 mi SE 5.8 mph - N/A   Clear
8:35 PM 73.4 °F - 59.0 °F 61% 30.14 in 10.0 mi SSE 4.6 mph - N/A   Clear
8:55 PM 73.4 °F - 59.0 °F 61% 30.14 in 10.0 mi SSE 6.9 mph - N/A   Clear
9:15 PM 75.2 °F - 57.2 °F 53% 30.15 in 10.0 mi South 3.5 mph - N/A   Unknown
9:35 PM 73.4 °F - 59.0 °F 61% 30.15 in 10.0 mi South 4.6 mph - N/A   Unknown
9:55 PM 73.4 °F - 59.0 °F 61% 30.15 in 10.0 mi SSE 5.8 mph - N/A   Clear
10:15 PM 73.4 °F - 57.2 °F 57% 30.14 in 10.0 mi South 4.6 mph - N/A   Clear
10:35 PM 73.4 °F - 57.2 °F 57% 30.14 in 10.0 mi South 6.9 mph - N/A   Clear
10:55 PM 73.4 °F - 57.2 °F 57% 30.14 in 10.0 mi South 5.8 mph - N/A   Clear
11:15 PM 73.4 °F - 57.2 °F 57% 30.14 in 10.0 mi South 4.6 mph - N/A   Clear
11:35 PM 73.4 °F - 57.2 °F 57% 30.14 in 10.0 mi South 5.8 mph - N/A   Unknown
11:55 PM 71.6 °F - 57.2 °F 60% 30.13 in 10.0 mi South 5.8 mph - N/A   Unknown